CAPE
0 0 0 0 0 0 0 0 0 0 0 0 0 2 0 0 3 7 14 12 2 15 11 3 2 2 1
0 0 0 0 0 0 0 0 0 0 0 0 0 0 0 0 3 9 4 11 8 4 0 0 1 1 1
0 0 0 0 0 0 0 0 0 0 0 0 0 0 0 0 0 0 2 17 13 2 0 0 0 1 1
0 0 0 0 0 0 0 0 0 0 0 0 0 0 0 0 0 0 0 0 0 5 4 0 0 1 1
0 0 0 0 0 0 0 0 0 0 0 0 0 0 0 0 0 0 0 0 0 0 0 0 6 3 2
0 0 0 0 0 0 0 0 0 0 0 0 0 0 0 0 0 0 0 0 0 0 0 1 6 3 0
0 0 0 0 0 0 0 0 0 0 0 0 0 0 0 0 0 0 0 0 0 0 0 0 2 2 1
0 0 0 0 0 0 0 0 0 0 0 0 0 0 0 0 0 0 0 0 0 0 0 0 0 0 0
0 0 0 1 2 0 0 0 0 0 0 0 0 0 0 0 0 0 0 0 0 0 0 0 0 0 0
0 0 0 0 0 0 0 0 3 0 0 0 0 0 0 0 0 0 0 0 0 0 0 0 0 0 0
0 0 0 0 0 0 0 0 0 0 0 2 0 0 0 0 0 0 0 0 0 0 0 0 0 0 0
0 0 0 0 0 0 0 0 0 0 0 7 8 3 2 0 0 0 0 0 0 0 0 0 0 0 0
0 0 0 0 0 0 0 0 0 0 0 0 5 1 0 1 3 0 0 0 0 0 0 0 0 0 0
0 0 0 0 0 0 0 1 0 0 0 0 0 0 1 1 0 1 0 0 0 0 0 0 0 0 0
0 0 0 0 0 0 0 5 5 2 1 0 0 0 7 3 2 1 0 0 0 0 0 0 0 0 0
0 0 3 3 0 0 0 9 4 0 0 0 0 2 1 0 0 1 1 0 0 0 0 1 0 0 0
0 0 0 0 0 0 0 4 0 0 0 0 1 12 1 0 0 0 0 1 0 0 0 0 0 0 0
CIN
0 0 0 0 0 0 0 0 0 0 0 0 -1 -1 -1 -5 -5 -5 -5 -3 -1 0 0 -2 -1 -4 -3
0 0 0 0 0 0 0 0 0 0 0 0 0 0 0 0 -7 -6 -3 -7 -8 -9 0 0 0 0 0
0 0 0 0 0 0 0 0 0 0 0 0 0 0 0 0 0 0 -15 -9 -11 -15 0 0 0 0 0
0 0 0 0 0 0 0 0 0 0 0 0 0 0 0 0 0 0 0 0 0 -19 -18 -14 0 -1 0
0 0 0 0 0 0 0 0 0 0 0 0 0 0 0 0 0 0 0 0 0 0 0 -1 -2 -1 0
0 0 0 0 0 0 0 0 0 0 0 0 0 0 0 0 0 0 0 0 0 0 0 -7 -4 -8 -8
0 0 0 0 0 0 0 0 0 0 0 0 0 0 0 0 0 0 0 0 0 0 0 0 -1 -2 -6
0 0 0 0 0 0 0 0 0 0 0 0 0 0 0 0 0 0 0 0 0 0 0 -9 0 0 0
0 0 0 -2 -2 0 0 0 0 0 0 0 0 0 0 0 0 0 0 0 0 0 0 0 0 0 0
0 0 0 0 0 0 0 0 0 0 0 0 0 0 0 0 0 0 0 0 0 0 0 0 0 0 0
0 0 0 0 0 0 0 0 0 0 0 -12 0 0 0 0 0 0 0 0 0 0 0 0 0 0 0
0 0 0 0 0 0 0 0 0 0 0 -6 -5 -9 -9 0 0 0 0 0 0 0 0 0 0 0 0
0 0 0 0 0 0 0 0 0 0 0 -1 -3 -3 -2 -7 -3 0 0 0 0 0 0 0 0 0 0
0 0 0 0 0 0 0 -11 -7 0 0 0 0 -5 -3 -2 0 -7 0 0 0 0 0 0 0 0 0
0 0 -10 0 0 0 -27 -13 -8 -10 -4 0 0 0 -20 -16 -1 -1 0 -1 0 0 0 0 0 -2 0
0 0 -12 -9 0 0 -5 -8 -4 0 -2 0 0 -2 -13 0 0 0 0 0 0 0 0 0 -1 -1 0
-1 0 0 0 0 0 0 -18 0 0 0 0 -2 0 -3 0 0 0 0 0 0 0 0 0 -1 0 0
Wind_Speed
26 28 31 33 33 32 30 30 30 30 32 33 33 33 34 35 34 32 31 30 30 29 28 28 28 28 27
31 32 31 33 33 34 31 30 28 28 30 30 30 32 34 34 33 32 31 29 28 28 28 28 27 27 26
32 30 32 33 34 33 32 31 30 28 29 32 34 33 33 34 33 33 33 30 28 30 30 29 27 27 27
34 35 34 33 33 35 35 31 31 30 31 32 31 30 31 31 32 33 33 33 32 31 31 30 29 28 28
36 36 36 35 35 34 35 35 33 32 32 30 27 31 34 35 35 35 34 32 31 31 31 32 31 31 29
37 38 37 35 34 35 36 38 38 29 30 32 34 35 34 34 32 33 32 31 31 32 33 35 31 28 30
37 37 38 35 35 37 37 38 38 36 38 41 32 36 35 33 32 29 30 30 30 32 33 31 28 29 30
35 37 36 37 36 38 39 39 38 37 33 43 35 37 34 34 35 35 34 31 29 28 27 26 27 28 29
36 38 38 37 36 36 40 42 45 42 34 39 37 37 34 36 35 33 30 30 28 27 27 27 27 28 29
40 40 39 39 38 37 39 42 42 44 34 35 37 35 36 31 31 28 27 29 30 29 30 30 30 31 31
44 44 43 42 41 38 37 39 41 41 36 37 40 39 38 41 37 35 35 35 34 34 34 33 34 33 35
46 47 47 46 44 41 38 38 37 41 39 37 41 39 42 44 45 39 38 38 36 36 35 36 36 36 36
46 46 44 43 41 39 38 38 39 40 40 40 41 42 42 46 47 45 44 40 38 40 40 40 39 37 38
42 41 40 38 38 36 38 38 40 42 38 38 38 40 45 44 46 49 45 44 39 39 40 41 38 37 39
37 37 37 37 37 35 36 38 39 41 44 40 38 39 40 42 47 45 45 47 44 44 43 46 45 41 40
35 34 35 36 38 37 36 36 40 43 43 41 39 39 39 40 38 45 45 45 43 42 42 45 46 42 39
33 35 35 36 38 39 36 35 38 40 38 38 37 37 40 45 40 32 38 38 39 40 40 42 45 43 39
Wind_Direction
316 316 314 313 312 312 312 310 308 310 308 306 303 304 303 301 299 297 295 294 294 294 294 294 294 293 292
311 312 314 315 314 312 313 313 312 311 310 309 307 305 304 300 301 298 296 294 293 293 292 292 291 291 291
311 314 313 314 313 314 313 313 313 313 312 308 305 304 303 300 297 297 296 295 293 291 290 288 289 289 288
307 308 309 312 312 311 311 313 312 312 313 313 310 308 306 303 300 298 295 292 291 291 289 287 286 286 285
305 306 307 309 308 310 308 310 310 310 310 313 313 311 308 304 299 296 293 293 292 290 289 288 284 282 282
303 304 305 307 308 308 307 306 306 311 308 306 308 306 307 306 302 298 296 293 291 289 289 287 285 283 281
303 303 305 307 307 306 304 303 301 303 303 300 306 303 305 302 299 297 296 295 293 292 289 286 285 284 284
301 302 302 303 303 302 301 301 301 301 302 296 302 300 301 298 294 291 290 290 291 292 292 289 288 286 285
302 301 301 301 301 302 298 298 297 298 299 295 297 297 298 295 293 292 289 287 288 289 289 288 288 288 286
301 300 300 299 300 298 297 296 296 297 299 293 293 295 292 294 294 294 292 290 287 286 285 285 286 287 286
299 298 298 297 296 296 294 292 292 290 294 292 289 289 287 286 287 288 288 287 286 284 284 283 284 283 283
297 297 296 295 295 294 293 291 289 288 291 289 288 285 284 283 282 284 284 285 284 282 282 282 282 281 282
297 297 297 297 296 295 294 292 290 289 289 288 286 285 282 281 281 280 281 281 283 280 280 279 280 281 280
300 300 300 299 297 296 294 293 292 290 290 289 287 285 282 281 281 278 278 277 280 280 279 278 277 279 280
303 302 301 300 298 297 295 294 291 291 291 291 289 287 283 282 280 279 278 276 276 276 277 274 274 276 277
304 304 303 302 300 299 297 293 290 291 292 291 290 289 286 282 279 280 278 276 275 274 274 273 273 274 275
305 304 304 302 301 298 296 294 293 293 293 293 290 286 283 283 285 278 279 278 276 273 272 271 272 273 273